When you browse on this site, cookies collect data to enhance your experience and personalize the content and advertising you see.
Visit our Privacy Policy to learn more. By continuing to use the site, you agree to this use of cookies and data.
  • In Hungary
  • List of Countries
  • For 7 days
  • Water Temperature
  • Weather Map
  • News
  • Weather Widgets
  • user-avatar
    Login

    Hourly Weather Utehovo-1

    Today, 22 January, Wednesday

    Time Temperature Precipitation Wind Pressure Humidity
    00:00 +1°C° 0 mm 6 mps 739 mmHg 87%
    01:00 -1°C° 0 mm 6 mps 739 mmHg 86%
    02:00 0°C° 0 mm 5 mps 739 mmHg 86%
    03:00 -1°C° 0 mm 5 mps 738 mmHg 84%
    04:00 -1°C° 0 mm 5 mps 738 mmHg 81%
    05:00 -1°C° 0 mm 5 mps 737 mmHg 79%
    06:00 -1°C° 0.1 mm 5 mps 736 mmHg 83%
    07:00 -2°C° 0.1 mm 5 mps 736 mmHg 88%
    08:00 -2°C° 0.1 mm 4 mps 735 mmHg 92%
    09:00 -1°C° 0.1 mm 4 mps 735 mmHg 91%
    10:00 -1°C° 0.1 mm 5 mps 734 mmHg 90%
    11:00 -1°C° 0.1 mm 5 mps 733 mmHg 89%
    12:00 -1°C° 0 mm 5 mps 733 mmHg 87%
    13:00 -1°C° 0 mm 6 mps 733 mmHg 85%
    14:00 -1°C° 0 mm 6 mps 732 mmHg 83%
    15:00 -2°C° 0.1 mm 6 mps 732 mmHg 82%
    16:00 -2°C° 0.1 mm 5 mps 732 mmHg 82%
    17:00 -2°C° 0.1 mm 5 mps 732 mmHg 81%
    18:00 -4°C° 0 mm 5 mps 733 mmHg 80%
    19:00 -4°C° 0 mm 5 mps 734 mmHg 79%
    20:00 -4°C° 0 mm 5 mps 735 mmHg 78%
    21:00 -4°C° 0 mm 6 mps 735 mmHg 78%
    22:00 -5°C° 0 mm 6 mps 735 mmHg 79%
    23:00 -5°C° 0 mm 6 mps 736 mmHg 79%

    Tomorrow, 23 January, Thursday

    Time Temperature Precipitation Wind Pressure Humidity
    00:00 -5°C° 0 mm 6 mps 736 mmHg 80%
    01:00 -5°C° 0 mm 6 mps 737 mmHg 80%
    02:00 -5°C° 0 mm 6 mps 738 mmHg 80%
    03:00 -5°C° 0 mm 6 mps 738 mmHg 77%
    04:00 -6°C° 0 mm 7 mps 738 mmHg 75%
    05:00 -7°C° 0 mm 7 mps 738 mmHg 72%
    06:00 -7°C° 0 mm 7 mps 739 mmHg 70%
    07:00 -7°C° 0 mm 7 mps 740 mmHg 67%
    08:00 -8°C° 0 mm 7 mps 741 mmHg 64%
    09:00 -7°C° 0 mm 7 mps 742 mmHg 61%
    10:00 -6°C° 0 mm 6 mps 742 mmHg 58%
    11:00 -6°C° 0 mm 6 mps 743 mmHg 56%
    12:00 -6°C° 0 mm 6 mps 743 mmHg 55%
    13:00 -5°C° 0 mm 6 mps 743 mmHg 54%
    14:00 -5°C° 0 mm 6 mps 744 mmHg 53%
    15:00 -5°C° 0 mm 6 mps 744 mmHg 55%
    16:00 -5°C° 0 mm 5 mps 744 mmHg 58%
    17:00 -6°C° 0 mm 5 mps 744 mmHg 60%
    18:00 -6°C° 0 mm 5 mps 744 mmHg 65%
    19:00 -6°C° 0 mm 5 mps 744 mmHg 69%
    20:00 -6°C° 0 mm 5 mps 744 mmHg 74%
    21:00 -5°C° 0 mm 4 mps 745 mmHg 75%
    22:00 -5°C° 0 mm 4 mps 745 mmHg 76%
    23:00 -4°C° 0 mm 4 mps 745 mmHg 78%

    Day after tomorrow, 24 January, Friday

    Time Temperature Precipitation Wind Pressure Humidity
    00:00 -5°C° 0 mm 3 mps 745 mmHg 81%
    01:00 -5°C° 0 mm 3 mps 745 mmHg 85%
    02:00 -5°C° 0 mm 3 mps 744 mmHg 89%
    03:00 -4°C° 0 mm 3 mps 744 mmHg 89%
    04:00 -4°C° 0 mm 3 mps 743 mmHg 90%
    05:00 -4°C° 0 mm 4 mps 743 mmHg 90%
    06:00 -4°C° 0.1 mm 4 mps 742 mmHg 91%
    07:00 -5°C° 0.1 mm 5 mps 742 mmHg 93%
    08:00 -5°C° 0.1 mm 5 mps 741 mmHg 94%
    09:00 -4°C° 0.3 mm 5 mps 741 mmHg 94%
    10:00 -4°C° 0.3 mm 5 mps 741 mmHg 94%
    11:00 -2°C° 0.3 mm 5 mps 740 mmHg 94%
    12:00 -1°C° 0.1 mm 5 mps 740 mmHg 94%
    13:00 -1°C° 0.1 mm 5 mps 739 mmHg 94%
    14:00 0°C° 0.1 mm 5 mps 739 mmHg 95%
    15:00 +1°C° 0.1 mm 6 mps 739 mmHg 94%
    16:00 +1°C° 0.1 mm 6 mps 738 mmHg 94%
    17:00 +1°C° 0.1 mm 6 mps 738 mmHg 94%
    18:00 +1°C° 0 mm 6 mps 738 mmHg 93%
    19:00 +1°C° 0 mm 6 mps 739 mmHg 93%
    20:00 +1°C° 0 mm 6 mps 739 mmHg 93%
    21:00 +1°C° 0 mm 5 mps 739 mmHg 93%
    22:00 +1°C° 0 mm 5 mps 738 mmHg 94%
    23:00 0°C° 0 mm 5 mps 738 mmHg 94%

    25 January, Saturday

    Time Temperature Precipitation Wind Pressure Humidity
    00:00 0°C° 0.2 mm 5 mps 738 mmHg 94%
    01:00 0°C° 0.2 mm 5 mps 738 mmHg 95%
    02:00 0°C° 0.2 mm 5 mps 737 mmHg 95%
    03:00 0°C° 0.4 mm 5 mps 737 mmHg 95%
    04:00 +1°C° 0.4 mm 5 mps 736 mmHg 96%
    05:00 +1°C° 0.4 mm 5 mps 736 mmHg 96%
    06:00 +1°C° 0.2 mm 5 mps 736 mmHg 95%
    07:00 +1°C° 0.2 mm 5 mps 736 mmHg 95%
    08:00 +1°C° 0.2 mm 5 mps 736 mmHg 94%
    09:00 +1°C° 0.1 mm 6 mps 736 mmHg 94%
    10:00 +1°C° 0.1 mm 6 mps 736 mmHg 93%
    11:00 +1°C° 0.1 mm 6 mps 736 mmHg 93%
    12:00 +1°C° 0.1 mm 6 mps 736 mmHg 91%
    13:00 +1°C° 0.1 mm 6 mps 736 mmHg 89%
    14:00 -1°C° 0.1 mm 6 mps 736 mmHg 88%
    15:00 -1°C° 0 mm 6 mps 736 mmHg 85%
    16:00 -1°C° 0 mm 6 mps 736 mmHg 83%
    17:00 -1°C° 0 mm 6 mps 736 mmHg 81%
    18:00 -2°C° 0 mm 6 mps 737 mmHg 81%
    19:00 -2°C° 0 mm 6 mps 737 mmHg 81%
    20:00 -3°C° 0 mm 6 mps 737 mmHg 82%
    21:00 -3°C° 0.1 mm 6 mps 738 mmHg 82%
    22:00 -3°C° 0.1 mm 6 mps 738 mmHg 83%
    23:00 -3°C° 0.1 mm 6 mps 739 mmHg 83%

    26 January, Sunday

    Time Temperature Precipitation Wind Pressure Humidity
    00:00 -3°C° 0 mm 6 mps 740 mmHg 81%
    01:00 -4°C° 0 mm 5 mps 740 mmHg 79%
    02:00 -4°C° 0 mm 5 mps 741 mmHg 76%
    03:00 -5°C° 0 mm 5 mps 741 mmHg 76%
    04:00 -5°C° 0 mm 5 mps 742 mmHg 76%
    05:00 -4°C° 0 mm 4 mps 743 mmHg 76%
    06:00 -4°C° 0 mm 4 mps 743 mmHg 76%
    07:00 -4°C° 0 mm 4 mps 744 mmHg 77%
    08:00 -4°C° 0 mm 4 mps 744 mmHg 78%
    09:00 -4°C° 0 mm 4 mps 745 mmHg 76%
    10:00 -3°C° 0 mm 4 mps 745 mmHg 74%
    11:00 -2°C° 0 mm 4 mps 746 mmHg 71%
    12:00 -2°C° 0 mm 4 mps 746 mmHg 71%
    13:00 -1°C° 0 mm 3 mps 747 mmHg 70%
    14:00 0°C° 0 mm 3 mps 747 mmHg 69%
    15:00 -1°C° 0 mm 2 mps 747 mmHg 74%
    16:00 -2°C° 0 mm 2 mps 747 mmHg 78%
    17:00 -2°C° 0 mm 2 mps 747 mmHg 83%
    18:00 -2°C° 0 mm 2 mps 748 mmHg 83%
    19:00 -2°C° 0 mm 2 mps 748 mmHg 84%
    20:00 -2°C° 0 mm 2 mps 748 mmHg 85%
    21:00 -2°C° 0 mm 2 mps 748 mmHg 84%
    22:00 -2°C° 0 mm 2 mps 748 mmHg 84%
    23:00 -2°C° 0 mm 2 mps 748 mmHg 84%

    27 January, Monday

    Time Temperature Precipitation Wind Pressure Humidity
    00:00 -2°C° 0 mm 3 mps 748 mmHg 86%
    01:00 -2°C° 0 mm 3 mps 748 mmHg 88%
    02:00 -2°C° 0 mm 3 mps 748 mmHg 90%
    03:00 -2°C° 0 mm 3 mps 747 mmHg 92%
    04:00 -2°C° 0 mm 3 mps 747 mmHg 93%
    05:00 -2°C° 0 mm 3 mps 747 mmHg 95%
    06:00 -2°C° 0 mm 3 mps 747 mmHg 94%
    07:00 -2°C° 0 mm 3 mps 747 mmHg 94%
    08:00 -2°C° 0 mm 3 mps 746 mmHg 93%
    09:00 -3°C° 0 mm 4 mps 746 mmHg 91%
    10:00 -2°C° 0 mm 4 mps 746 mmHg 89%
    11:00 -2°C° 0 mm 4 mps 746 mmHg 86%
    12:00 -2°C° 0 mm 4 mps 746 mmHg 89%
    13:00 -2°C° 0 mm 4 mps 745 mmHg 92%
    14:00 -2°C° 0 mm 4 mps 744 mmHg 94%
    15:00 -2°C° 0.1 mm 4 mps 744 mmHg 95%
    16:00 -1°C° 0.1 mm 4 mps 744 mmHg 96%
    17:00 0°C° 0.1 mm 3 mps 744 mmHg 97%
    18:00 -1°C° 0 mm 4 mps 744 mmHg 97%
    19:00 -1°C° 0 mm 4 mps 744 mmHg 96%
    20:00 -1°C° 0 mm 4 mps 744 mmHg 96%
    21:00 -1°C° 0 mm 4 mps 744 mmHg 95%
    22:00 -2°C° 0 mm 4 mps 744 mmHg 94%
    23:00 -2°C° 0 mm 4 mps 744 mmHg 93%
    Show more